Regional Weather Roundup
Issued by NWS

Home | Current Version | Previous Version | Text Only | Print | Product List | Glossary On
Versions: 1 2 3 4 5 6 7 8 9 10 11 12 13 14 15 16 17 18 19 20 21 22 23 24 25 26 27 28 29 30 31 32 33 34 35 36 37 38 39 40 41 42 43 44 45 46 47 48 49 50
000
ASHW40 PHFO 240512
RWRHI

WEATHER ROUNDUP FOR HAWAII
NATIONAL WEATHER SERVICE HONOLULU HI
700 PM HST TUE MAY 23 2017

THIS IS AN AUTOMATED REPORT THAT HAS NOT BEEN QUALITY CONTROLLED.

NOTE..."FAIR" INDICATES FEW OR NO CLOUDS BELOW 12,000 FEET WITH NO
SIGNIFICANT WEATHER AND/OR OBSTRUCTIONS TO VISIBILITY.

* - THESE SITES REPORT LIMITED FIELDS

HIZ001>004-240600-
KAUAI-NIIHAU-

CITY           SKY/WX    TMP DP  RH WIND       PRES   REMARKS
LIHUE APT      PTCLDY    78  65  63 NE16      30.07R
PORT ALLEN*      N/A     79 N/A N/A E16         N/A
POIPU*           N/A     79 N/A N/A NE10G21     N/A
PRINCEVILLE*     N/A     77 N/A N/A E9G16       N/A
KOKOLE POINT*  NOT AVBL
MOLOAA DAIRY*    N/A     77  64  65 E3G13       N/A
WAIMEA HTS*    NOT AVBL
PUU OPAE*      NOT AVBL
PUU LUA*       NOT AVBL
MAKAHA RIDGE*  NOT AVBL
$$

HIZ005>011-240600-
OAHU-

CITY           SKY/WX    TMP DP  RH WIND       PRES   REMARKS
HONOLULU       LGT RAIN  75  67  76 N9        30.02R
KALAELOA       CLOUDY    77  68  73 E6        30.03R
KANEOHE MCB    NOT AVBL
WHEELER FIELD  CLOUDY    74  65  74 VRB3      30.04R
BELLOWS*       NOT AVBL
KAHUKU*        NOT AVBL
WHEELER*       NOT AVBL
WAIANAE HARBOR NOT AVBL
DILLINGHAM*      N/A     81  66  61 SW7G18      N/A
KAHUKU TRN*      N/A     73  66  78 W15G28      N/A
KAWAILOA*        N/A     70  66  88 E7G14       N/A
KII*             N/A     79  68  69 NE18        N/A
MAKUA RANGE*     N/A     79  63  57 W7G16       N/A
OAHU FOREST NW NOT AVBL
SCHOFIELD BRK*   N/A     66  57  72 MISG        N/A
SCHOFIELD S*   NOT AVBL
WAIANAE VLY*   NOT AVBL
KUAOKALA*      NOT AVBL
HONOULIUULI*   NOT AVBL
MOKUOLOE IS*   NOT AVBL
PALEHUA*       NOT AVBL
WAIAWA PHB*    NOT AVBL
$$

HIZ012>013-240600-
MOLOKAI-

CITY           SKY/WX    TMP DP  RH WIND       PRES   REMARKS
MOLOKAI AIRPT  CLOUDY    73  68  84 N8        30.03R
KALAUPAPA      NOT AVBL
MAKAPULAPAI*   NOT AVBL
MOLOKAI 1*     NOT AVBL
PUU ALII*      NOT AVBL
$$

HIZ016-240600-
KAHOOLAWE-

CITY           SKY/WX    TMP DP  RH WIND       PRES   REMARKS
KAHOOLAWE*     NOT AVBL
HAKIOAWA*      NOT AVBL
HONOKANAIA*      N/A     77  67  71 NE16G26   29.93R
KANELOA*         N/A     72  68  88 E18G35    30.06R
KEALIALALO*    NOT AVBL
LUA MAKIKA*    NOT AVBL
$$

HIZ014>015-240600-
LANAI-

CITY           SKY/WX    TMP DP  RH WIND       PRES   REMARKS
LANAI CITY     FAIR      70  65  84 NE14      30.05S
LANAI 1*       NOT AVBL
$$

HIZ017>028-240600-
MAUI-

CITY           SKY/WX    TMP DP  RH WIND       PRES   REMARKS
KAHULUI        PTCLDY    74  67  78 NE14G28   30.00R
KAPALUA-W MAUI NOT AVBL
HANA AIRPORT   MOCLDY    72  68  88 S6        30.07S
HANA*            N/A     72 N/A N/A S3          N/A
HALEAKALA SUMM   N/A     45  45 100 NE25        N/A
MAALAEA BAY*   NOT AVBL
HALEAKALA*     NOT AVBL
KAUPO GAP*     NOT AVBL
KULA 1*          N/A     56  55  98 N3          N/A
$$

HIZ023>026-240600-
BIG ISLAND OF HAWAII COAST AND LOWER SLOPES-

CITY           SKY/WX    TMP DP  RH WIND       PRES   REMARKS
KAILUA KONA    CLOUDY    79  64  60 SE6       29.97R
HILO           CLOUDY    74  70  87 W5        30.03R
HONOKAA*         N/A     70 N/A N/A VRB1        N/A
KAWAIHAE MWT*    N/A     81 N/A N/A SW8         N/A
KAWAIHAE*      NOT AVBL
SOUTH POINT*     N/A     72 N/A N/A N16G24      N/A
UPOLU AIRPORT* NOT AVBL
KAMUELA*       NOT AVBL
HAKALAU*         N/A     50  49  95 W2          N/A
KALOKO-HONOKO* NOT AVBL
PALI 2*          N/A     64  59  82 S18G29      N/A
KEALAKOMO*       N/A     79  64  61 N17G25      N/A
KAUPULEHU*     NOT AVBL
KAPAPALA*        N/A     71  61  70 N8G18       N/A
LOWER KAHUKU*  NOT AVBL
PUHE CS*       NOT AVBL
PUHO CS*       NOT AVBL
PTA KEAMUKU*     N/A     63  57  82 CALM        N/A
WAIKOLOA*      NOT AVBL
$$

HIZ027>028-240600-
BIG ISLAND OF HAWAII INTERIOR AND SUMMMITS-

CITY           SKY/WX    TMP DP  RH WIND       PRES   REMARKS
BRADSHAW FIELD MOCLDY    58  49  70 S5        30.29S
MK VISITOR CEN   N/A     54  -2  10 E9          N/A
MAUNA KEA*       N/A     37 -18   8 NE13        N/A  WCI  29
MAUNA LOA*     NOT AVBL
MAUNA LOA 1*   NOT AVBL
PTA KIPUKA*      N/A     70  64  83 SW3G16      N/A
PTA RANGE 17*    N/A     61  50  67 E9G17       N/A
PTA WEST*        N/A     64  63  94 W6G15       N/A
NENE CABIN*    NOT AVBL
AHUMOA*        NOT AVBL
PTA PORTABLE*  NOT AVBL
PUU MALI*        N/A    N/A N/A N/A E21G30      N/A
$$

HIC003-240600-
NORTHWEST ISLANDS-

CITY           SKY/WX    TMP DP  RH WIND       PRES   REMARKS
MIDWAY ISLAND  MOSUNNY   73  63  68 E21       30.26S
MIDWAY NOS*    NOT AVBL
FRENCH FRIGATE NOT AVBL
$$

PHZ110>124-180-240600-
BUOY REPORTS

STATION/POSITION TIME  TEMP    WIND        PRES    WAVE   SWELL
                       AIR SEA DIR/SP/G            HT/PER HT/DIR
                 (UTC) (F)     (DEG/KT/KT) (MB)    (FT/S) (FT/D)
BUOY 51001       0450   75 77   50/ 19/ 23 1019.5R  10/ 8   5/160
BUOY 51101       0450   75 77   50/ 19/ 23 1019.7R  10/ 8   3/190
BUOY 51100       NOT AVBL
BUOY 51002       0450   78 78   70/ 17/ 21 1013.8R   8/ 7   5/ 10
BUOY 51003       0450   79 79   60/ 16/ 19 1014.8R   7/ 8   5/ 40
BUOY 51004       0450      78   60/ 17/ 19 1014.4R   8/ 8   5/300
BARBERS PT BUOY  NOT AVBL
WAIMEA BAY BUOY  0402      78                N/A     7/10   3/320
KAILUA BAY BUOY  0434      79                N/A     9/ 8   2/350
LANAI BUOY       NOT AVBL
BARBERS PT 2     NOT AVBL
PAUWELA MAUI     0439      78                N/A     8/ 9   3/330
HILO             0412      79                N/A     7/12   3/340
KANEOHE BAY BUOY 0455      79                N/A     8/ 8   2/340
HANALEI KAUAI    0452      79                N/A     9/ 9   3/350
KAHULUI HARBOR   0442   75 79   50/ 14/ 24 1016.0F
HONOLULU HARBOR  0448   76 80   40/  2/  8 1017.2R
KILO NALU        NOT AVBL
HILO HARBOR      0442   74 78  250/  6/  7 1016.6R
MOKUOLOE         0436   77 80   60/ 12/ 17 1017.0R
NAWILIWILI       0448   77      40/ 11/ 13 1017.6R
WHOTS BUOY       NOT AVBL
BUOY 51028       NOT AVBL
$$

......................KEY........................................
  SKY/WX - SKY CONDITIONS/PRESENT WEATHER
  TMP    - TEMPERATURE IN FAHRENHEIT
  DWPT   - DEWPOINT IN FAHRENHEIT
  RH     - RELATIVE HUMIDITY IN PERCENT
  WIND   - DIRECTION AND SPEED /MPH FOR ISLANDS...KTS FOR BUOYS/
  PRES   - MEAN SEA LEVEL PRESSURE IN INCHES OF HG
  VSB    - VISIBILITY IN MILES
  HX     - HEAT INDEX
  WCI    - WIND CHILL INDEX
  VRB    - VARIABLE WIND DIRECTION
  N/A    - NOT AVAILABLE




USA.gov is the U.S. government's official web portal to all federal, state and local government web resources and services.